Time,TemperatureF,DewpointF,PressureIn,WindDirection,WindDirectionDegrees,WindSpeedMPH,WindSpeedGustMPH,Humidity,HourlyPrecipIn,Conditions,Clouds,dailyrainin,SolarRadiationWatts/m^2,SoftwareType,DateUTC
2013-11-09 00:04:00,48.5,48.0,30.00,SSW,212,3.0,5.0,96,0.01,,,0.00,0,weatherlink.com 1.10,2013-11-08 23:04:00,
2013-11-09 00:19:00,48.6,48.0,30.00,SSW,206,2.0,6.0,96,0.04,,,0.03,0,weatherlink.com 1.10,2013-11-08 23:19:00,
2013-11-09 00:34:00,48.5,48.0,30.00,SSW,201,0.0,6.0,96,0.05,,,0.05,0,weatherlink.com 1.10,2013-11-08 23:34:00,
2013-11-09 00:49:00,48.4,48.0,30.00,SSW,201,0.0,3.0,97,0.06,,,0.06,0,weatherlink.com 1.10,2013-11-08 23:49:00,
2013-11-09 01:04:00,48.3,47.0,30.00,SSW,201,0.0,0.0,96,0.06,,,0.06,0,weatherlink.com 1.10,2013-11-09 00:04:00,
2013-11-09 01:19:00,48.2,48.0,30.01,SSW,201,0.0,4.0,100,0.05,,,0.08,0,weatherlink.com 1.10,2013-11-09 00:19:00,
2013-11-09 01:35:00,48.1,47.0,30.02,SSW,201,0.0,0.0,97,0.05,,,0.09,0,weatherlink.com 1.10,2013-11-09 00:35:00,
2013-11-09 01:50:00,48.1,47.0,30.02,SSW,201,0.0,0.0,97,0.06,,,0.11,0,weatherlink.com 1.10,2013-11-09 00:50:00,
2013-11-09 02:05:00,48.0,47.0,30.02,SSW,201,0.0,0.0,97,0.07,,,0.13,0,weatherlink.com 1.10,2013-11-09 01:05:00,
2013-11-09 02:20:00,47.9,47.0,30.02,SSW,201,0.0,0.0,97,0.08,,,0.16,0,weatherlink.com 1.10,2013-11-09 01:20:00,
2013-11-09 02:35:00,47.8,47.0,30.02,SSW,201,0.0,0.0,97,0.06,,,0.16,0,weatherlink.com 1.10,2013-11-09 01:35:00,
2013-11-09 02:50:00,47.7,47.0,30.01,SSW,201,0.0,4.0,97,0.05,,,0.16,0,weatherlink.com 1.10,2013-11-09 01:50:00,
2013-11-09 03:05:00,47.7,47.0,30.01,SSW,201,0.0,4.0,97,0.02,,,0.16,0,weatherlink.com 1.10,2013-11-09 02:05:00,
2013-11-09 03:20:00,47.6,47.0,30.02,SSW,201,1.0,5.0,97,0.00,,,0.16,0,weatherlink.com 1.10,2013-11-09 02:20:00,
2013-11-09 03:35:00,47.5,47.0,30.01,SSW,201,2.0,3.0,97,0.01,,,0.17,0,weatherlink.com 1.10,2013-11-09 02:35:00,
2013-11-09 03:50:00,47.3,47.0,30.01,SSW,201,0.0,4.0,97,0.01,,,0.17,0,weatherlink.com 1.10,2013-11-09 02:50:00,
2013-11-09 04:05:00,47.2,46.0,30.01,SSW,201,0.0,4.0,97,0.01,,,0.17,0,weatherlink.com 1.10,2013-11-09 03:05:00,
2013-11-09 04:20:00,47.0,46.0,30.01,SSW,201,1.0,1.0,97,0.01,,,0.17,0,weatherlink.com 1.10,2013-11-09 03:20:00,
2013-11-09 04:35:00,47.1,46.0,30.01,SSW,201,0.0,2.0,97,0.00,,,0.17,0,weatherlink.com 1.10,2013-11-09 03:35:00,
2013-11-09 04:50:00,47.0,46.0,30.01,SSW,201,0.0,2.0,97,0.00,,,0.17,0,weatherlink.com 1.10,2013-11-09 03:50:00,
2013-11-09 05:05:00,46.9,46.0,30.02,SSW,201,0.0,0.0,98,0.00,,,0.17,0,weatherlink.com 1.10,2013-11-09 04:05:00,
2013-11-09 05:20:00,46.9,46.0,30.01,SSW,201,0.0,1.0,98,0.00,,,0.17,0,weatherlink.com 1.10,2013-11-09 04:20:00,
2013-11-09 05:35:00,46.8,46.0,30.01,SSW,201,0.0,1.0,97,0.00,,,0.17,0,weatherlink.com 1.10,2013-11-09 04:35:00,
2013-11-09 05:50:00,46.4,46.0,30.02,SSW,201,0.0,2.0,97,0.00,,,0.17,0,weatherlink.com 1.10,2013-11-09 04:50:00,
2013-11-09 06:05:00,46.1,45.0,30.02,SSW,201,0.0,0.0,97,0.00,,,0.17,0,weatherlink.com 1.10,2013-11-09 05:05:00,
2013-11-09 06:20:00,46.2,46.0,30.02,SSW,201,0.0,0.0,98,0.00,,,0.17,0,weatherlink.com 1.10,2013-11-09 05:20:00,
2013-11-09 06:35:00,46.0,45.0,30.02,SSW,201,0.0,2.0,97,0.00,,,0.17,0,weatherlink.com 1.10,2013-11-09 05:35:00,
2013-11-09 06:50:00,46.0,45.0,30.03,SSW,201,0.0,1.0,97,0.00,,,0.17,0,weatherlink.com 1.10,2013-11-09 05:50:00,
2013-11-09 07:05:00,45.8,45.0,30.03,SSW,201,0.0,2.0,97,0.00,,,0.17,0,weatherlink.com 1.10,2013-11-09 06:05:00,
2013-11-09 07:20:00,45.6,45.0,30.04,SSW,201,0.0,0.0,97,0.00,,,0.17,0,weatherlink.com 1.10,2013-11-09 06:20:00,
2013-11-09 07:36:00,45.4,45.0,30.04,SW,229,4.0,9.0,97,0.00,,,0.17,0,weatherlink.com 1.10,2013-11-09 06:36:00,
2013-11-09 07:51:00,46.1,43.0,30.04,WSW,258,5.0,15.0,89,0.00,,,0.17,9,weatherlink.com 1.10,2013-11-09 06:51:00,
2013-11-09 08:06:00,46.4,43.0,30.05,West,269,2.0,9.0,87,0.00,,,0.17,23,weatherlink.com 1.10,2013-11-09 07:06:00,
2013-11-09 08:21:00,46.0,44.0,30.05,West,269,3.0,4.0,92,0.00,,,0.17,47,weatherlink.com 1.10,2013-11-09 07:21:00,
2013-11-09 08:36:00,46.3,43.0,30.05,WNW,284,9.0,10.0,89,0.00,,,0.17,42,weatherlink.com 1.10,2013-11-09 07:36:00,
2013-11-09 08:51:00,46.6,43.0,30.05,NW,308,7.0,12.0,86,0.00,,,0.17,67,weatherlink.com 1.10,2013-11-09 07:51:00,
2013-11-09 09:07:00,46.8,42.0,30.05,WNW,298,0.0,6.0,84,0.00,,,0.17,47,weatherlink.com 1.10,2013-11-09 08:07:00,
2013-11-09 09:21:00,46.3,41.0,30.05,WNW,299,2.0,7.0,83,0.00,,,0.17,54,weatherlink.com 1.10,2013-11-09 08:21:00,
2013-11-09 09:36:00,46.6,43.0,30.05,WNW,299,2.0,6.0,87,0.00,,,0.17,290,weatherlink.com 1.10,2013-11-09 08:36:00,
2013-11-09 09:51:00,48.0,41.0,30.05,WNW,299,5.0,7.0,77,0.00,,,0.17,318,weatherlink.com 1.10,2013-11-09 08:51:00,
2013-11-09 10:06:00,48.7,41.0,30.05,WNW,296,1.0,10.0,76,0.00,,,0.17,350,weatherlink.com 1.10,2013-11-09 09:06:00,
2013-11-09 10:21:00,49.2,43.0,30.05,NW,310,1.0,10.0,79,0.00,,,0.17,244,weatherlink.com 1.10,2013-11-09 09:21:00,
2013-11-09 10:36:00,49.2,44.0,30.05,NW,309,0.0,5.0,81,0.00,,,0.17,141,weatherlink.com 1.10,2013-11-09 09:36:00,
2013-11-09 10:51:00,49.7,43.0,30.06,NW,309,0.0,0.0,79,0.00,,,0.17,422,weatherlink.com 1.10,2013-11-09 09:51:00,
2013-11-09 11:06:00,50.1,45.0,30.06,NW,309,0.0,5.0,83,0.00,,,0.17,446,weatherlink.com 1.10,2013-11-09 10:06:00,
2013-11-09 11:21:00,49.3,44.0,30.05,SW,229,3.0,8.0,82,0.00,,,0.17,141,weatherlink.com 1.10,2013-11-09 10:21:00,
2013-11-09 11:36:00,48.7,44.0,30.04,SW,228,1.0,6.0,84,0.00,,,0.17,176,weatherlink.com 1.10,2013-11-09 10:36:00,
2013-11-09 11:51:00,48.7,42.0,30.04,SW,228,0.0,3.0,79,0.00,,,0.17,146,weatherlink.com 1.10,2013-11-09 10:51:00,
2013-11-09 12:06:00,49.0,44.0,30.03,SW,228,0.0,0.0,82,0.00,,,0.17,151,weatherlink.com 1.10,2013-11-09 11:06:00,
2013-11-09 12:21:00,49.5,45.0,30.02,SW,228,3.0,4.0,83,0.00,,,0.17,355,weatherlink.com 1.10,2013-11-09 11:21:00,
2013-11-09 12:36:00,51.3,44.0,30.02,SW,228,4.0,7.0,75,0.00,,,0.17,568,weatherlink.com 1.10,2013-11-09 11:36:00,
2013-11-09 12:51:00,50.3,42.0,30.01,SW,228,3.0,5.0,73,0.00,,,0.17,156,weatherlink.com 1.10,2013-11-09 11:51:00,
2013-11-09 13:06:00,49.6,43.0,30.01,SW,228,2.0,3.0,78,0.00,,,0.17,114,weatherlink.com 1.10,2013-11-09 12:06:00,
2013-11-09 13:21:00,49.5,42.0,30.00,SW,228,0.0,2.0,76,0.00,,,0.17,130,weatherlink.com 1.10,2013-11-09 12:21:00,
2013-11-09 13:36:00,50.2,43.0,30.00,SW,228,0.0,0.0,75,0.00,,,0.17,432,weatherlink.com 1.10,2013-11-09 12:36:00,
2013-11-09 13:51:00,51.3,42.0,29.99,SW,228,1.0,2.0,70,0.00,,,0.17,420,weatherlink.com 1.10,2013-11-09 12:51:00,
2013-11-09 14:06:00,52.8,40.0,29.99,SW,223,0.0,11.0,63,0.00,,,0.17,397,weatherlink.com 1.10,2013-11-09 13:06:00,
2013-11-09 14:21:00,53.0,42.0,29.99,SSW,194,9.0,11.0,66,0.00,,,0.17,374,weatherlink.com 1.10,2013-11-09 13:21:00,
2013-11-09 14:36:00,52.6,42.0,29.99,SW,231,5.0,13.0,67,0.00,,,0.17,274,weatherlink.com 1.10,2013-11-09 13:36:00,
2013-11-09 14:51:00,52.1,42.0,29.98,SSW,213,4.0,12.0,68,0.00,,,0.17,339,weatherlink.com 1.10,2013-11-09 13:51:00,
2013-11-09 15:06:00,52.2,41.0,29.98,SSW,211,7.0,11.0,65,0.00,,,0.17,283,weatherlink.com 1.10,2013-11-09 14:06:00,
2013-11-09 15:21:00,51.8,40.0,29.97,SW,214,3.0,12.0,65,0.00,,,0.17,243,weatherlink.com 1.10,2013-11-09 14:21:00,
2013-11-09 15:36:00,51.7,39.0,29.97,SSW,211,5.0,13.0,63,0.00,,,0.17,202,weatherlink.com 1.10,2013-11-09 14:36:00,
2013-11-09 15:51:00,51.0,38.0,29.96,SSW,211,4.0,12.0,62,0.00,,,0.17,100,weatherlink.com 1.10,2013-11-09 14:51:00,
2013-11-09 16:07:00,49.9,40.0,29.95,SSW,208,3.0,7.0,70,0.00,,,0.17,39,weatherlink.com 1.10,2013-11-09 15:07:00,
2013-11-09 16:22:00,48.3,39.0,29.95,SSW,208,0.0,5.0,70,0.00,,,0.17,33,weatherlink.com 1.10,2013-11-09 15:22:00,
2013-11-09 16:37:00,47.9,39.0,29.94,SSW,208,0.0,3.0,72,0.00,,,0.17,26,weatherlink.com 1.10,2013-11-09 15:37:00,
2013-11-09 16:52:00,47.0,39.0,29.94,SSW,208,3.0,4.0,75,0.00,,,0.17,19,weatherlink.com 1.10,2013-11-09 15:52:00,
2013-11-09 17:21:00,46.0,41.0,29.93,SSW,208,5.0,5.0,81,0.00,,,0.17,0,weatherlink.com 1.10,2013-11-09 16:21:00,
2013-11-09 17:37:00,45.4,39.0,29.93,SSW,208,3.0,5.0,77,0.00,,,0.17,0,weatherlink.com 1.10,2013-11-09 16:37:00,
2013-11-09 17:52:00,46.0,39.0,29.93,SSW,208,3.0,3.0,76,0.00,,,0.17,0,weatherlink.com 1.10,2013-11-09 16:52:00,
2013-11-09 18:07:00,46.0,39.0,29.94,SSW,208,3.0,4.0,77,0.00,,,0.17,0,weatherlink.com 1.10,2013-11-09 17:07:00,
2013-11-09 18:22:00,45.8,39.0,29.94,SSW,208,1.0,5.0,77,0.00,,,0.17,0,weatherlink.com 1.10,2013-11-09 17:22:00,
2013-11-09 18:37:00,45.8,40.0,29.94,SSW,208,4.0,5.0,80,0.00,,,0.17,0,weatherlink.com 1.10,2013-11-09 17:37:00,
2013-11-09 18:52:00,45.9,39.0,29.94,SSW,208,0.0,4.0,77,0.00,,,0.17,0,weatherlink.com 1.10,2013-11-09 17:52:00,
2013-11-09 19:07:00,46.0,40.0,29.94,SSW,208,2.0,3.0,78,0.00,,,0.17,0,weatherlink.com 1.10,2013-11-09 18:07:00,
2013-11-09 19:22:00,45.9,40.0,29.94,SSW,208,3.0,3.0,80,0.00,,,0.17,0,weatherlink.com 1.10,2013-11-09 18:22:00,
2013-11-09 19:37:00,45.6,40.0,29.94,SSW,208,2.0,5.0,82,0.00,,,0.17,0,weatherlink.com 1.10,2013-11-09 18:37:00,
2013-11-09 19:52:00,45.9,40.0,29.94,SSW,208,1.0,5.0,80,0.00,,,0.17,0,weatherlink.com 1.10,2013-11-09 18:52:00,
2013-11-09 20:07:00,46.0,41.0,29.95,SSW,208,2.0,2.0,81,0.00,,,0.17,0,weatherlink.com 1.10,2013-11-09 19:07:00,
2013-11-09 20:22:00,47.0,41.0,29.97,SW,229,9.0,16.0,79,0.00,,,0.17,0,weatherlink.com 1.10,2013-11-09 19:22:00,
2013-11-09 20:37:00,45.7,41.0,29.97,SSW,211,5.0,16.0,84,0.03,,,0.20,0,weatherlink.com 1.10,2013-11-09 19:37:00,
2013-11-09 20:52:00,44.5,41.0,29.97,SSW,192,7.0,11.0,87,0.06,,,0.22,0,weatherlink.com 1.10,2013-11-09 19:52:00,
2013-11-09 21:07:00,43.8,41.0,29.98,South,187,1.0,11.0,91,0.07,,,0.24,0,weatherlink.com 1.10,2013-11-09 20:07:00,
2013-11-09 21:22:00,43.3,41.0,29.97,South,185,5.0,7.0,92,0.07,,,0.24,0,weatherlink.com 1.10,2013-11-09 20:22:00,
2013-11-09 21:37:00,43.1,41.0,29.97,South,184,2.0,8.0,93,0.06,,,0.25,0,weatherlink.com 1.10,2013-11-09 20:37:00,
2013-11-09 21:52:00,43.0,41.0,29.97,South,184,6.0,8.0,94,0.03,,,0.25,0,weatherlink.com 1.10,2013-11-09 20:52:00,
2013-11-09 22:08:00,42.8,41.0,29.97,South,183,3.0,6.0,94,0.02,,,0.25,0,weatherlink.com 1.10,2013-11-09 21:08:00,
2013-11-09 22:23:00,42.9,41.0,29.96,South,179,0.0,8.0,94,0.01,,,0.25,0,weatherlink.com 1.10,2013-11-09 21:23:00,
2013-11-09 22:38:00,42.9,41.0,29.96,South,179,2.0,5.0,94,0.00,,,0.25,0,weatherlink.com 1.10,2013-11-09 21:38:00,
2013-11-09 22:53:00,42.7,41.0,29.95,South,179,1.0,3.0,94,0.00,,,0.25,0,weatherlink.com 1.10,2013-11-09 21:53:00,
2013-11-09 23:08:00,42.7,41.0,29.95,South,179,2.0,5.0,95,0.01,,,0.26,0,weatherlink.com 1.10,2013-11-09 22:08:00,
2013-11-09 23:23:00,42.7,41.0,29.95,South,179,0.0,4.0,94,0.01,,,0.26,0,weatherlink.com 1.10,2013-11-09 22:23:00,
2013-11-09 23:38:00,42.6,41.0,29.95,South,179,3.0,3.0,94,0.01,,,0.26,0,weatherlink.com 1.10,2013-11-09 22:38:00,
2013-11-09 23:53:00,42.5,41.0,29.95,South,179,2.0,4.0,94,0.01,,,0.26,0,weatherlink.com 1.10,2013-11-09 22:53:00,